Tracking 30703 objects as of 12-Jun-2025
HD Live streaming from Space Station
objects crossing your sky now

TUSUR GO

Track TUSUR GO now!
10-day predictions


NORAD ID: 61782
Int'l Code: 2024-199AZ
Perigee: 453.1 km
Apogee: 472.5 km
Inclination: 97.4 °
Period: 93.7 minutes
Semi major axis: 6833 km
RCS: Unknown
Launch date: November 4, 2024
Source: Commonwealth of Independent States (former USSR) (CIS)
Launch site: VOSTOCHNY COSMODROME (VOSTO)
Your satellite tracking list
Your tracking list is empty




NASA's NSSDC Master Catalog

Two Line Element Set (TLE):
1 61782U 24199AZ  25163.58390434  .00023955  00000-0  66544-3 0  9994
2 61782  97.3520  32.4901 0014240 173.3326 186.8111 15.36776197 77425
Source of the keplerian elements: AFSPC